Regional Weather Roundup
Issued by NWS Goodland, KS

Home | Current Version | Previous Version | Text Only | Print | Product List | Glossary On
Versions: 1 2 3 4 5 6 7 8 9 10 11 12 13 14 15 16 17 18 19 20 21 22 23 24 25 26 27 28 29 30 31 32 33 34 35 36 37 38 39 40 41 42 43 44 45 46 47 48 49 50
000
ASUS43 KGLD 291608
RWRGLD

GOODLAND FORECAST AREA HOURLY WEATHER ROUNDUP
NATIONAL WEATHER SERVICE GOODLAND KS
1000 AM MDT THU JUN 29 2017

...OFFICIAL OBSERVATIONS...

CITY           SKY/WX    TMP DP  RH WIND       PRES   REMARKS
GOODLAND KS    SUNNY     73  57  57 SE8       29.92R
HILL CITY KS   MOSUNNY   75  66  73 SE21G29   29.84R
IMPERIAL NEB   SUNNY     78  55  44 VRB5      29.91R
MCCOOK NEB     PTSUNNY   74  63  68 S17G26    29.88R
AKRON CO       SUNNY     71  51  49 SW5       29.98R
BURLINGTON CO  SUNNY     73  56  54 S7        29.94S
LIMON CO       SUNNY     75  49  39 VRB5      30.01R
$$

...UNOFFICIAL OBSERVATIONS...

CITY           SKY/WX    TMP DP  RH WIND       PRES   REMARKS
LENORA KS        N/A     73  32  22 MISG        N/A
NORTON KS      SUNNY     77  59  53 SE14G21   29.85R
SHARON SPRINGS   N/A     75  58  55 NE5G12      N/A
TRENTON NEB      N/A     77  32  19 SW10        N/A
KIT CARSON CO    N/A     75  55  50 CALM        N/A
YUMA CO        FAIR      72  50  46 W10       29.95R
$$




USA.gov is the U.S. government's official web portal to all federal, state and local government web resources and services.